#timestamp,LO_Frequency,Hit,StdDev 
1624921215.9,286047002.6,N
1624921235.7,286047002.3,N
1624921255.5,286047002.2,N
1624921275.4,286047001.6,N
1624921295.2,286047001.3,N
1624921315.0,286047002.4,N
1624921315.9,286047002.4,N
1624921335.8,286046999.7,N
1624921355.6,286047002.8,N
1624921375.5,286046999.7,N
1624921395.3,286047002.8,N
1624921415.1,286047002.8,N
1624921435.9,286047001.8,N
1624921455.7,286047004.2,N
1624921475.6,286047003.9,N
1624921495.4,286047003.3,N
1624921515.2,286047003.9,N
1624921535.1,286047004.2,N
1624921536.0,286047004.2,N
1624921555.8,286047001.5,N
1624921575.6,286047002.6,N
1624921595.5,286047001.3,N
1624921615.3,286047004.3,N
1624921635.2,286047003.8,N
1624921655.9,286047003.8,N
1624921675.7,286047002.2,N
1624921695.6,286047001.5,N
1624921715.4,286047001.5,N
1624921735.2,286047004.0,Y
1624921755.1,286047000.3,P
1624921756.0,286047000.3,N
1624921775.8,286047000.2,N
1624921795.7,286046999.7,N
1624921815.5,286046999.7,N
1624921835.3,286046999.9,N
1624921855.2,286047000.2,N
1624921875.0,286046999.9,N
1624921875.9,286046999.9,N
1624921895.8,286047002.1,N
1624921915.6,286047000.1,N
1624921935.4,286047000.5,N
1624921955.3,286047000.0,N
1624921975.1,286047000.8,N
1624921995.8,286047000.5,N
1624922015.7,286047001.1,N
1624922035.5,286047000.5,N
1624922055.4,286047000.5,N
1624922075.2,286047001.5,N
1624922095.0,286046999.9,N
1624922095.9,286046999.9,N
1624922115.8,286046999.7,N
1624922135.6,286046999.7,N
1624922155.4,286046999.9,N
1624922175.3,286047000.1,N
1624922195.1,286047002.8,Y
1624922215.9,286047002.3,P
1624922265.7,286047000.5,E
1624922275.7,286047000.4,N
1624922295.5,286047000.8,P
1624922315.3,286047000.1,N
1624922335.2,286047000.3,N
1624922355.0,286047000.4,N
1624922355.9,286047000.4,N
1624922375.8,286047000.3,N
1624922395.6,286047000.1,N
1624922415.4,286046999.8,N
1624922435.3,286047002.0,Y
1624922455.1,286046999.7,P
1624922475.8,286046999.9,N
1624922495.7,286047000.4,N
1624922515.5,286046999.6,N
1624922535.4,286046999.6,N
1624922555.2,286046998.8,Y
1624922575.0,286046997.0,P
1624922575.9,286046997.0,N
1624922595.8,286046999.2,N
1624922615.6,286046999.2,N
1624922635.4,286046997.0,N
1624922655.3,286046997.5,N
1624922675.1,286046997.3,N
1624922695.9,286046997.8,N
1624922715.7,286046995.8,Y
1624922735.5,286046999.5,P
1624922755.4,286046999.6,N
1624922775.2,286046998.4,N
1624922795.1,286046997.0,Y
1624922796.0,286046997.0,P
1624922815.8,286047000.8,N
1624922835.6,286047000.8,N
1624922855.5,286047000.4,N
1624922875.3,286047000.8,N
1624922895.2,286047000.0,N
1624922915.9,286046999.7,N
1624922935.7,286046999.7,N
1624922955.6,286047002.8,N
1624922975.4,286047000.2,N
1624922995.3,286047000.6,N
1624923015.1,286047000.0,N
1624923016.0,286047000.0,N
1624923035.8,286047002.4,N
1624923055.7,286047001.5,N
1624923075.5,286047003.7,N
1624923095.4,286047006.0,Y
1624923115.2,286047003.6,P
1624923135.0,286047004.2,N
1624923135.9,286047004.2,N
1624923155.8,286047001.9,N
1624923175.6,286047002.7,N
1624923195.5,286047002.4,N
1624923215.3,286047004.0,Y
1624923235.1,286047001.2,P
1624923255.9,286047000.2,N
1624923275.7,286047002.5,N
1624923295.6,286047000.2,N
1624923315.4,286046998.5,N
1624923335.2,286047001.1,N
1624923355.1,286047001.1,N
1624923356.0,286047001.1,N
1624923375.8,286046998.7,N
1624923395.6,286046999.4,N
1624923415.5,286046999.2,N
1624923435.3,286046999.5,N
1624923455.2,286046997.3,N
1624923475.9,286046997.1,N
1624923495.7,286046995.4,N
1624923515.6,286046995.0,N
1624923535.4,286046995.1,N
1624923555.2,286046996.2,N
1624923575.1,286046996.4,N
1624923576.0,286046996.4,N
1624923595.8,286046993.3,N
1624923615.7,286046996.1,N
1624923635.5,286046996.2,N
1624923655.3,286046993.3,N
1624923675.2,286046996.4,N
1624923695.0,286046996.4,N
1624923695.9,286046996.4,N
1624923715.7,286046996.2,N
1624923735.6,286046993.3,N
1624923755.4,286046996.4,N
1624923775.3,286046996.3,N
1624923795.1,286046995.5,N
1624923796.0,286046995.5,N
1624923815.8,286046995.9,N
1624923835.7,286046995.4,N
1624923855.5,286046995.1,N
1624923875.3,286046997.9,N
1624923895.2,286046996.4,N
1624923915.0,286046996.0,N
1624923915.9,286046996.0,N
1624923935.8,286046996.4,N
1624923955.6,286046994.4,Y
1624923975.4,286046998.4,P
1624923995.3,286047000.6,N
1624924015.1,286046998.1,N
1624924035.9,286046999.7,N
1624924055.7,286047002.3,N
1624924075.5,286047000.0,N
1624924095.4,286046999.0,N
1624924115.2,286046999.4,N
1624924135.0,286046998.3,N
1624924135.9,286046998.3,N
1624924155.8,286046999.6,N
1624924175.6,286046998.6,N
1624924195.5,286046998.9,N
1624924215.3,286046999.1,N
1624924235.1,286047000.9,N
1624924255.9,286047000.4,N
1624924275.7,286047000.3,N
1624924295.6,286047000.5,N
1624924315.4,286047000.1,N
1624924335.2,286047000.5,N
1624924355.1,286047001.8,N
1624924356.0,286047001.8,N
1624924375.8,286047002.2,N
1624924395.7,286047002.2,N
1624924415.5,286047002.5,N
1624924435.3,286047002.1,N
1624924455.2,286047001.9,N
1624924475.0,286047002.2,N
1624924475.9,286047002.2,N
1624924495.7,286047002.6,N
1624924515.6,286047002.5,N
1624924535.4,286047000.1,N
1624924555.3,286047002.3,N
1624924575.1,286047002.2,N
1624924576.0,286047002.2,N
1624924595.8,286047001.8,N
1624924615.7,286047002.5,N
1624924635.5,286047002.2,N
1624924655.3,286046999.8,N
1624924675.2,286047002.6,N
1624924695.0,286046999.7,N
1624924695.9,286046999.7,N
1624924715.8,286047001.4,N
1624924735.6,286047002.3,N
1624924755.4,286047002.2,N
1624924775.3,286047002.4,N
1624924795.1,286047002.3,N
